Regional Weather Roundup
Issued by NWS Jackson, KY

Home | Current Version | Previous Version | Graphics & Text | Print | Product List | Glossary On
Versions: 1 2 3 4 5 6 7 8 9 10 11 12 13 14 15 16 17 18 19 20 21 22 23 24 25 26 27 28 29 30 31 32 33 34 35 36 37 38 39 40 41 42 43 44 45 46 47 48 49 50
000
ASUS43 KJKL 010311
RWRJKL

EAST KENTUCKY HOURLY WEATHER ROUNDUP
NATIONAL WEATHER SERVICE JACKSON KY
1100 PM EDT THU JUL 31 2014

NOTE: "FAIR" INDICATES FEW OR NO CLOUDS BELOW 12,000 FEET WITH
NO SIGNIFICANT WEATHER AND/OR OBSTRUCTIONS TO VISIBILITY.

* THESE REPORTS ARE NOT UNDER NWS QUALITY CONTROL AND MAY NOT
  REPORT WEATHER SUCH AS PRECIPITATION AND FOG.

KYZ079-080-083-085-087-088-110-112-115-119-120-010400
...EASTERN KENTUCKY...

CITY           SKY/WX    TMP DP  RH WIND       PRES   REMARKS
JACKSON        MOCLDY    72  59  63 CALM      30.12S
LONDON         MOCLDY    70  61  73 CALM      30.12R
SOMERSET*      CLEAR     64  63  94 CALM      30.12R
MONTICELLO*    PTCLDY    62  61  97 CALM      30.12R
WILLIAMSBURG*    N/A    N/A N/A N/A CALM        N/A
MIDDLESBORO*   MOCLDY    67  62  83 CALM      30.13R
HARLAN APT*    MOCLDY    66  63  88 MISG      30.15R
BLACK MTN*       N/A     61  59  94 SW2         N/A
PIKEVILLE APT* CLOUDY    70  61  73 S3        30.14R
BIG SANDY*     PTCLDY    66  63  90 CALM      30.13R
MOREHEAD APT*    N/A     68  61  77 CALM      30.13S
$$

KYZ035-036-041-042-044-050-067-078-099-010400
...CENTRAL KENTUCKY...

CITY           SKY/WX    TMP DP  RH WIND       PRES   REMARKS
MT STERLING*   PTCLDY    63  63 100 CALM      30.12S
FLEMING/MASON* CLEAR     68  59  73 SE5       30.12S
DANVILLE*      CLEAR     64  61  88 CALM      30.12R
RICHMOND*      CLEAR     68  61  77 CALM      30.11R
LEXINGTON      CLEAR     70  61  73 CALM      30.11R
FRANKFORT      CLEAR     66  60  81 CALM      30.09R
$$

KYZ091>093-OHZ055-061-077-WVZ005-015-034-035-042-010400
...SOUTHERN OHIO/WEST VIRGINIA...

CITY           SKY/WX    TMP DP  RH WIND       PRES   REMARKS
COLUMBUS       PTCLDY    70  60  70 CALM      30.09S
DAYTON         CLEAR     69  60  73 SW5       30.11R
WILMINGTON     CLOUDY    69  64  84 CALM      30.11R
HUNTINGTON     PTCLDY    66  64  93 E5        30.10R
CHARLESTON     PTCLDY    65  64  97 CALM      30.11S
PINEVILLE*     PTCLDY    64  64  97 MISG      30.22S
BECKLEY        CLOUDY    66  58  75 SE5       30.20R
BLUEFIELD      MOCLDY    65  59  81 CALM      30.22S
$$

VAZ002-007-008-TNZ017-027-036-066-071-010400
...SOUTHWEST VIRGINIA/EAST TENNESSEE...

CITY           SKY/WX    TMP DP  RH WIND       PRES   REMARKS
WISE*          CLOUDY    66  54  63 S5        30.21R
JONESVILLE*      N/A     66  64  94 CALM      30.16S
ABINGDON*      CLOUDY    67  64  89 CALM      30.18S
BRISTOL        CLOUDY    69  60  73 CALM      30.15R
KNOXVILLE      CLOUDY    72  64  76 CALM      30.09R
OAK RIDGE      MOCLDY    71  65  81 CALM      30.11R
CROSSVILLE     CLOUDY    68  62  81 CALM      30.14S
NASHVILLE      PTCLDY    73  61  65 CALM      30.07R
$$

...KEY TO REMARKS...
VSB - VISIBILITY IN MILES
WCI - WIND CHILL INDEX
HX  - HEAT INDEX

$$


USA.gov is the U.S. government's official web portal to all federal, state and local government web resources and services.